Hourly Weather Kyzylkiya

Today, 26 October, Monday

Time Temperature Precipitation Wind Pressure Humidity
00:00 +9°C° 0 mm 2 mps 720 mmHg 37%
01:00 +9°C° 0 mm 2 mps 720 mmHg 36%
02:00 +9°C° 0 mm 2 mps 720 mmHg 35%
03:00 +9°C° 0 mm 2 mps 719 mmHg 35%
04:00 +9°C° 0 mm 2 mps 719 mmHg 35%
05:00 +9°C° 0 mm 2 mps 719 mmHg 35%
06:00 +10°C° 0 mm 2 mps 719 mmHg 33%
07:00 +12°C° 0 mm 2 mps 719 mmHg 32%
08:00 +13°C° 0 mm 2 mps 719 mmHg 30%
09:00 +15°C° 0 mm 1 mps 719 mmHg 26%
10:00 +19°C° 0 mm 1 mps 719 mmHg 22%
11:00 +21°C° 0 mm 1 mps 719 mmHg 18%
12:00 +22°C° 0 mm 1 mps 719 mmHg 17%
13:00 +22°C° 0 mm 1 mps 719 mmHg 16%
14:00 +23°C° 0 mm 2 mps 718 mmHg 16%
15:00 +20°C° 0 mm 2 mps 718 mmHg 17%
16:00 +20°C° 0 mm 1 mps 718 mmHg 19%
17:00 +19°C° 0 mm 1 mps 717 mmHg 21%
18:00 +16°C° 0 mm 1 mps 717 mmHg 23%
19:00 +15°C° 0 mm 1 mps 717 mmHg 25%
20:00 +14°C° 0 mm 1 mps 717 mmHg 28%
21:00 +13°C° 0 mm 1 mps 717 mmHg 27%
22:00 +13°C° 0 mm 2 mps 717 mmHg 26%
23:00 +13°C° 0 mm 2 mps 716 mmHg 26%

Tomorrow, 27 October, Tuesday

Time Temperature Precipitation Wind Pressure Humidity
00:00 +13°C° 0 mm 2 mps 716 mmHg 25%
01:00 +13°C° 0 mm 2 mps 716 mmHg 25%
02:00 +13°C° 0 mm 2 mps 716 mmHg 24%
03:00 +13°C° 0 mm 2 mps 715 mmHg 24%
04:00 +13°C° 0 mm 2 mps 715 mmHg 24%
05:00 +13°C° 0 mm 2 mps 715 mmHg 23%
06:00 +14°C° 0 mm 1 mps 715 mmHg 22%
07:00 +14°C° 0 mm 1 mps 715 mmHg 21%
08:00 +15°C° 0 mm 1 mps 715 mmHg 20%
09:00 +18°C° 0 mm 1 mps 715 mmHg 18%
10:00 +20°C° 0 mm 1 mps 715 mmHg 17%
11:00 +21°C° 0 mm 2 mps 715 mmHg 15%
12:00 +21°C° 0 mm 2 mps 714 mmHg 15%
13:00 +22°C° 0 mm 3 mps 714 mmHg 15%
14:00 +22°C° 0 mm 3 mps 714 mmHg 15%
15:00 +21°C° 0 mm 3 mps 714 mmHg 17%
16:00 +19°C° 0 mm 2 mps 714 mmHg 19%
17:00 +18°C° 0 mm 2 mps 714 mmHg 21%
18:00 +16°C° 0 mm 1 mps 714 mmHg 23%
19:00 +15°C° 0 mm 1 mps 714 mmHg 25%
20:00 +14°C° 0 mm 1 mps 715 mmHg 27%
21:00 +13°C° 0 mm 1 mps 715 mmHg 30%
22:00 +13°C° 0 mm 1 mps 715 mmHg 32%
23:00 +12°C° 0 mm 2 mps 715 mmHg 34%

Day after tomorrow, 28 October, Wednesday

Time Temperature Precipitation Wind Pressure Humidity
00:00 +12°C° 0 mm 1 mps 715 mmHg 36%
01:00 +11°C° 0 mm 1 mps 715 mmHg 39%
02:00 +11°C° 0 mm 1 mps 715 mmHg 41%
03:00 +9°C° 0 mm 2 mps 715 mmHg 43%
04:00 +8°C° 0 mm 2 mps 716 mmHg 45%
05:00 +8°C° 0 mm 2 mps 716 mmHg 47%
06:00 +8°C° 0 mm 2 mps 716 mmHg 45%
07:00 +8°C° 0 mm 2 mps 717 mmHg 44%
08:00 +8°C° 0 mm 2 mps 718 mmHg 42%
09:00 +9°C° 0 mm 2 mps 718 mmHg 40%
10:00 +10°C° 0 mm 2 mps 718 mmHg 37%
11:00 +11°C° 0 mm 3 mps 719 mmHg 34%
12:00 +11°C° 0 mm 3 mps 719 mmHg 33%
13:00 +12°C° 0 mm 3 mps 719 mmHg 31%
14:00 +13°C° 0 mm 4 mps 719 mmHg 29%
15:00 +11°C° 0 mm 3 mps 720 mmHg 28%
16:00 +10°C° 0 mm 3 mps 720 mmHg 27%
17:00 +9°C° 0 mm 3 mps 720 mmHg 25%
18:00 +7°C° 0 mm 3 mps 720 mmHg 29%
19:00 +4°C° 0 mm 3 mps 721 mmHg 33%
20:00 +4°C° 0 mm 2 mps 721 mmHg 36%
21:00 +3°C° 0 mm 2 mps 721 mmHg 38%
22:00 +3°C° 0 mm 2 mps 721 mmHg 40%
23:00 +2°C° 0 mm 2 mps 721 mmHg 42%

29 October, Thursday

Time Temperature Precipitation Wind Pressure Humidity
00:00 +2°C° 0 mm 2 mps 721 mmHg 43%
01:00 +2°C° 0 mm 2 mps 721 mmHg 44%
02:00 +2°C° 0 mm 2 mps 721 mmHg 46%
03:00 +1°C° 0 mm 2 mps 721 mmHg 47%
04:00 +1°C° 0 mm 2 mps 722 mmHg 48%
05:00 +1°C° 0 mm 2 mps 722 mmHg 49%
06:00 +1°C° 0 mm 2 mps 722 mmHg 47%
07:00 +2°C° 0 mm 2 mps 723 mmHg 46%
08:00 +2°C° 0 mm 2 mps 723 mmHg 45%
09:00 +4°C° 0 mm 2 mps 723 mmHg 42%
10:00 +5°C° 0 mm 2 mps 723 mmHg 39%
11:00 +7°C° 0 mm 3 mps 723 mmHg 36%
12:00 +8°C° 0 mm 3 mps 724 mmHg 35%
13:00 +8°C° 0 mm 3 mps 724 mmHg 33%
14:00 +8°C° 0 mm 4 mps 724 mmHg 32%
15:00 +6°C° 0 mm 4 mps 724 mmHg 34%
16:00 +5°C° 0 mm 4 mps 724 mmHg 36%
17:00 +4°C° 0 mm 4 mps 724 mmHg 38%
18:00 +2°C° 0 mm 3 mps 725 mmHg 42%
19:00 +1°C° 0 mm 3 mps 725 mmHg 46%
20:00 -1°C° 0 mm 2 mps 726 mmHg 49%
21:00 -1°C° 0 mm 2 mps 726 mmHg 52%
22:00 -2°C° 0 mm 2 mps 726 mmHg 55%
23:00 -2°C° 0 mm 2 mps 726 mmHg 58%

30 October, Friday

Time Temperature Precipitation Wind Pressure Humidity
00:00 0°C° 0 mm 1 mps 726 mmHg 59%
01:00 0°C° 0 mm 1 mps 726 mmHg 60%
02:00 0°C° 0 mm 1 mps 726 mmHg 61%
03:00 0°C° 0 mm 1 mps 726 mmHg 62%
04:00 -1°C° 0 mm 1 mps 726 mmHg 62%
05:00 -1°C° 0 mm 1 mps 727 mmHg 63%
06:00 0°C° 0 mm 1 mps 727 mmHg 58%
07:00 +1°C° 0 mm 1 mps 727 mmHg 52%
08:00 +2°C° 0 mm 1 mps 728 mmHg 47%
09:00 +4°C° 0 mm 1 mps 728 mmHg 40%
10:00 +7°C° 0 mm 1 mps 728 mmHg 33%
11:00 +8°C° 0 mm 2 mps 727 mmHg 26%
12:00 +9°C° 0 mm 2 mps 727 mmHg 23%
13:00 +10°C° 0 mm 3 mps 727 mmHg 20%
14:00 +11°C° 0 mm 3 mps 726 mmHg 17%
15:00 +10°C° 0 mm 3 mps 726 mmHg 19%
16:00 +9°C° 0 mm 3 mps 726 mmHg 22%
17:00 +7°C° 0 mm 3 mps 726 mmHg 24%
18:00 +6°C° 0 mm 2 mps 725 mmHg 27%
19:00 +5°C° 0 mm 2 mps 725 mmHg 30%
20:00 +3°C° 0 mm 2 mps 725 mmHg 33%
21:00 +3°C° 0 mm 2 mps 725 mmHg 31%
22:00 +4°C° 0 mm 1 mps 724 mmHg 30%
23:00 +4°C° 0 mm 1 mps 724 mmHg 28%

31 October, Saturday

Time Temperature Precipitation Wind Pressure Humidity
00:00 +4°C° 0 mm 1 mps 724 mmHg 27%
01:00 +4°C° 0 mm 1 mps 723 mmHg 25%
02:00 +4°C° 0 mm 1 mps 723 mmHg 24%
03:00 +4°C° 0 mm 1 mps 723 mmHg 23%
04:00 +4°C° 0 mm 1 mps 723 mmHg 22%
05:00 +4°C° 0 mm 1 mps 722 mmHg 21%
06:00 +4°C° 0 mm 1 mps 723 mmHg 20%
07:00 +5°C° 0 mm 1 mps 723 mmHg 19%
08:00 +6°C° 0 mm 1 mps 723 mmHg 18%
09:00 +8°C° 0 mm 1 mps 723 mmHg 16%
10:00 +10°C° 0 mm 2 mps 723 mmHg 14%
11:00 +13°C° 0 mm 2 mps 723 mmHg 13%
Show more

We Need Your Consent

Meteoprog and our Service Providers may store and access personal data such as cookies, device identifiers or other similar technologies on your device and process such data to personalise content and ads, as well as provide social media features and to analyse the traffic.

  • Store and/or access information on your device

    Cookies, device identifiers or other information can be stored or accessed on your device for the purposes indicated above.

  • Personalised ads and content, ad and content measurement, audience insights, and products development

    Ads and content can be personalised based on a profile. More data can be added to better personalise ads and content. Ad and content performance can be measured. Insights about the audience who saw the ads and content can be derived. Such data can be used to develop or improve user’s experience, systems and software.

By clicking ‘I Agree’ you will allow the use of indicated cookies, device identifiers, web beacons or other similar technologies. Your settings can be changed in the browser on your device.

For certain purposes, legitimate interests may be relied on, rather than consent. You can read more about this in our Privacy and Cookie Policy.